Погода в Римгорском

Россия / Карачаево-Черкесская Республика     43°57′26″N   42°31′32″E
темп.,
°C
ветер,
м/с
пор.,
м/с
влажн.,
%
обл.,
%
осадки,
мм/ч
давл.,
гПа
погр.,
м
15 мая, сб
сб1500:00+16ююз335115 0.1 101321
03:00+15юз4351100 0.1 101426
06:00+16ююз33615 0.0 101429
09:00+22ссз23520 0.0 1014623
12:00+23с43510 0.0 1014982
15:00+23ссв44620 0.0 10141299
18:00+20всв2382100 1.6 1014132
21:00+16ююз2285100 5.0 101422
16 мая, вс
вс1600:00+15ю2277100 0.0 101212
03:00+13ю227483 0.3 101212
06:00+14ю2270100 0.0 101116
09:00+20всв236164 0.0 1010507
12:00+23в555934 0.0 10081105
15:00+22в676314 0.1 10071064
18:00+19вюв4780100 1.2 1007374
21:00+15ю3375100 3.8 100834
17 мая, пн
пн1700:00+15ю327119 0.0 100615
03:00+14ю326099 0.0 100616
06:00+16ююз32600 0.0 100619
09:00+23св114738 0.0 1006287
12:00+24ссв435551 0.0 1007786
15:00+20ссз4576100 2.9 1008353
18:00+14зюз449395 11.4 101181
21:00+13юз118889 14.6 101213
18 мая, вт
вт1800:00+12ююз118199 0.6 101111
03:00+12зюз238671 2.1 101125
06:00+12зсз3594100 1.9 1013213
09:00+14зсз788561 3.3 1013787
12:00+16зсз6872100 0.2 1014974
15:00+16сз5674100 0.3 1014906
18:00+15сз3484100 0.5 1015572
21:00+11зюз339179 0.9 101735
19 мая, ср
ср1900:00+11юз22894 0.0 101711
03:00+10ююз22870 0.0 101811
06:00+12ююв21830 0.0 101840
09:00+17в34690 0.0 1016702
12:00+20в66650 0.0 10141049
15:00+20в77650 0.0 1013947
18:00+18в710795 0.0 1013554
21:00+13юв35900 0.0 101392